www.pogodaiklimat.ru
ПОГОДА в Борланже
Время
(UTC), дата
16 3.12
17 3.12
18 3.12
19 3.12
20 3.12
21 3.12
22 3.12
23 3.12
00 4.12
01 4.12
02 4.12
03 4.12
04 4.12
05 4.12
06 4.12
07 4.12
08 4.12
09 4.12
10 4.12
11 4.12
12 4.12
13 4.12
14 4.12
15 4.12
16 4.12
17 4.12
18 4.12
19 4.12
20 4.12
21 4.12
22 4.12
23 4.12
00 5.12
01 5.12
02 5.12
03 5.12
04 5.12
05 5.12
06 5.12
07 5.12
08 5.12
09 5.12
10 5.12
11 5.12
12 5.12
13 5.12
14 5.12
15 5.12
16 5.12
17 5.12
18 5.12
19 5.12
20 5.12
21 5.12
22 5.12
23 5.12
00 6.12
01 6.12
02 6.12
03 6.12
04 6.12
05 6.12
06 6.12
07 6.12
08 6.12
09 6.12
10 6.12
11 6.12
12 6.12
13 6.12
14 6.12
15 6.12
16 6.12
17 6.12
18 6.12
19 6.12
20 6.12
21 6.12
22 6.12
23 6.12
00 7.12
01 7.12
02 7.12
03 7.12
04 7.12
05 7.12
06 7.12
07 7.12
08 7.12
09 7.12
10 7.12
11 7.12
12 7.12
13 7.12
14 7.12
15 7.12
16 7.12
17 7.12
18 7.12
19 7.12
20 7.12
21 7.12
22 7.12
23 7.12
00 8.12
01 8.12
02 8.12
03 8.12
04 8.12
05 8.12
06 8.12
07 8.12
08 8.12
09 8.12
10 8.12
11 8.12
12 8.12
13 8.12
14 8.12
15 8.12
16 8.12
17 8.12
18 8.12
19 8.12
20 8.12
21 8.12
22 8.12
23 8.12
00 9.12
01 9.12
02 9.12
03 9.12
04 9.12
05 9.12
06 9.12
07 9.12
08 9.12
09 9.12
10 9.12
11 9.12
12 9.12
13 9.12
14 9.12
15 9.12
16 9.12
17 9.12
18 9.12
19 9.12
20 9.12
21 9.12
22 9.12
23 9.12
00 10.12
01 10.12
02 10.12
03 10.12
04 10.12
05 10.12
06 10.12
07 10.12
08 10.12
09 10.12
10 10.12
11 10.12
12 10.12
13 10.12
14 10.12
15 10.12
16 10.12
Ветер
(напр.,м/с)
Видим. Явления Облачность Т
(С)
Тd
(С)
f
(%)
Тe
(С)
Тes
(С)
Комфортность P
(гПа)
Po
(гПа)
Тmin
(С)
Tmax
(С)
R
(мм)
R24
(мм)
S
(см)
ЮЗ 2 50 км н/о +0.3 -0.6 94 -3 -3 прохладно 1005.1 986.2
З 2 50 км в посл. час осадки н/о +0.8 -0.2 93 -3 -3 прохладно 1005.1 986.1
З 4 50 км н/о +1.3 0.0 91 -4 -4 прохладно 1005.1 986.2 -7.5 +1.4
З 4 50 км н/о +1.3 -0.2 90 -4 -4 прохладно 1005.3 986.4
З 3 50 км н/о +1.4 -0.3 88 -3 -3 прохладно 1005.2 986.2
З 5 50 км н/о +1.4 -0.3 88 -4 -4 прохладно 1005.5 986.6
З 6 50 км н/о +1.8 0.0 88 -4 -4 прохладно 1005.8 986.8
З 3 50 км н/о +2.8 +0.4 84 -1 -1 по сезону 1006.1 987.2
СВ 2 45 км в посл. час осадки н/о +1.3 0.0 91 -2 -2 по сезону 1005.9 987.0
Ю 1 50 км н/о +0.9 0.0 94 -1 -1 по сезону 1005.7 986.7
Ю 2 50 км н/о +0.5 -0.2 95 -3 -3 прохладно 1005.9 986.9
Ю 1 50 км н/о -0.7 -0.9 99 -3 -3 прохладно 1006.1 987.1
ЮВ 1 50 км н/о -1.3 -1.6 98 -4 -4 прохладно 1006.3 987.3
Ю 2 50 км н/о -1.8 -1.9 99 -6 -6 холодно 1006.7 987.6
ЮВ 1 40 км н/о -1.1 -1.4 98 -3 -3 прохладно 1007.1 988.0 -4.1 +3.1
ЮЗ 1 50 км н/о -0.9 -1.4 96 -3 -3 прохладно 1007.4 988.3
Ю 1 50 км н/о -0.7 -0.7 100 -3 -3 прохладно 1007.5 988.5
ЮЗ 2 50 км н/о -0.5 -0.7 99 -4 -4 прохладно 1007.4 988.4
Ю 1 50 км н/о -1.1 -1.1 100 -3 -3 прохладно 1007.6 988.5
Ю 2 50 км н/о +0.6 +0.4 99 -3 -3 прохладно 1007.2 988.2
ЮЗ 4 50 км н/о +2.4 +0.6 88 -3 -3 прохладно 1006.9 988.0
Ю 4 50 км н/о +1.8 +0.4 90 -3 -3 прохладно 1006.5 987.5
ЮЗ 4 50 км н/о +1.5 -0.8 85 -4 -4 прохладно 1006.2 987.2
Ю 3 50 км н/о +2.3 +0.6 89 -2 -2 по сезону 1006.2 987.3
Ю 3 50 км н/о +2.8 +0.4 84 -1 -1 по сезону 1005.8 987.0
Ю 4 50 км н/о +1.5 -0.3 88 -4 -4 прохладно 1005.4 986.5
ЮЗ 4 50 км н/о +3.2 +1.2 87 -2 -2 по сезону 1004.6 985.8 -2.8 +4.0
З 6 45 км н/о +3.8 +1.6 86 -2 -2 по сезону 1003.8 985.1
ЮЗ 8 30 км н/о +4.0 +1.5 84 -2 -2 по сезону 1003.6 984.9
ЮЗ 5 26 км н/о +3.7 +1.4 85 -1 -1 по сезону 1002.7 984.0
ЮЗ 6 40 км н/о +4.1 +1.7 84 -1 -1 по сезону 1002.3 983.6
ЮЗ 8 40 км н/о +4.0 +1.6 84 -2 -2 по сезону 1002.8 984.1
ЮЗ 6 30 км н/о +4.2 +1.9 85 -1 -1 по сезону 1002.1 983.4
ЮЗ 7 35 км н/о +4.9 +2.1 82 -1 -1 по сезону 1001.7 983.1
ЮЗ 7 40 км н/о +4.6 +1.8 82 -1 -1 по сезону 1001.2 982.6
ЮЗ 5 40 км н/о +4.6 +2.2 84 -0 -0 по сезону 1000.8 982.2
ЮЗ 4 45 км н/о +5.0 +2.5 84 +1 +1 по сезону 1000.6 982.0
ЮЗ 5 40 км н/о +5.3 +2.6 83 +1 +1 по сезону 999.4 980.8
ЮЗ 5 35 км н/о +5.3 +2.6 83 +1 +1 по сезону 998.9 980.4 +3.1 +5.5
ЮЗ 5 45 км н/о +5.2 +2.4 82 +1 +1 по сезону 998.4 979.9
ЮЗ 5 40 км н/о +5.4 +1.7 77 +1 +1 по сезону 998.2 979.6
ЮЗ 9 30 км н/о +5.2 +1.1 75 -1 -1 по сезону 997.0 978.4
ЮЗ 8 45 км н/о +5.1 +1.1 75 -1 -1 по сезону 996.5 978.0
ЮЗ 10 30 км н/о +5.2 +0.8 73 -1 -1 по сезону 995.1 976.6
ЮЗ 8 45 км н/о +5.3 +0.8 73 -0 -0 по сезону 994.3 975.9
ЮЗ 7 35 км н/о +5.0 +0.8 74 -0 -0 по сезону 993.5 975.0
ЮЗ 7 35 км н/о +5.3 +0.6 72 0 0 по сезону 992.5 974.1
ЮЗ 9 35 км н/о +5.5 +1.0 73 -0 -0 по сезону 991.9 973.5
ЮЗ 7 29 км н/о +5.6 +1.2 73 +1 +1 по сезону 991.4 973.0
ЮЗ 8 30 км н/о +5.5 +1.3 74 0 0 по сезону 990.8 972.5
ЮЗ 7 30 км н/о +5.9 +1.5 73 +1 +1 по сезону 990.9 972.6 +4.7 +6.1
ЮЗ 9 27 км н/о +6.0 +1.7 74 0 0 по сезону 990.2 971.9
ЮЗ 9 35 км н/о +6.1 +1.8 74 +1 +1 по сезону 989.6 971.3
ЮЗ 11 24 км н/о +6.1 +2.2 76 0 0 по сезону 989.2 970.9
ЮЗ 10 30 км н/о +6.3 +2.4 76 +1 +1 по сезону 988.6 970.3
ЮЗ 8 20 км н/о +6.0 +3.0 81 +1 +1 по сезону 988.2 969.9
ЮЗ 5 45 км н/о +5.7 +3.0 83 +1 +1 по сезону 987.4 969.1
ЮЗ 6 50 км н/о +5.3 +2.3 81 0 0 по сезону 986.3 968.0
ЮЗ 6 13 км слаб. дождь н/о +4.6 +2.4 86 -1 -1 по сезону 985.4 967.0
Ю 4 7000 м слаб. дождь н/о +3.9 +2.7 92 -1 -1 по сезону 984.5 966.1
Ю 4 10 км слаб. дождь н/о +3.8 +2.6 92 -1 -1 по сезону 983.5 965.1
ЮЗ 2 30 км слаб. дождь н/о +3.7 +2.4 91 +1 +1 по сезону 982.8 964.4
ЮЗ 1 40 км морось н/о +3.7 +2.6 93 +2 +2 по сезону 982.3 964.0 +3.7 +6.4
Ю 1 50 км в посл. час морось н/о +3.1 +2.6 97 +1 +1 по сезону 982.3 963.9
ЮЗ 1 45 км н/о +3.6 +3.2 97 +2 +2 по сезону 983.2 964.8
З 1 50 км н/о +4.3 +3.2 93 +3 +3 по сезону 983.9 965.6
З 4 50 км н/о +4.6 +3.3 91 0 0 по сезону 984.4 966.1
З 3 50 км н/о +4.8 +3.1 89 +1 +1 по сезону 985.4 967.0
З 3 50 км н/о +4.7 +2.5 86 +1 +1 по сезону 986.0 967.6
З 2 50 км н/о +3.1 +1.6 90 0 0 по сезону 986.8 968.3
З 3 50 км н/о +3.4 +1.3 86 -1 -1 по сезону 987.2 968.7
З 3 50 км н/о +2.7 +0.7 87 -1 -1 по сезону 987.9 969.3
З 2 50 км н/о +2.2 +0.7 90 -1 -1 по сезону 988.1 969.5
Ю 2 50 км н/о +0.7 -0.7 90 -3 -3 прохладно 988.6 969.9
Ю 2 50 км н/о +0.4 -0.2 96 -3 -3 прохладно 989.0 970.4 -0.3 +5.0
Ю 3 50 км н/о +1.3 +0.7 96 -3 -3 прохладно 989.1 970.5
ЮЗ 1 50 км н/о +1.6 +1.3 98 -0 -0 по сезону 989.0 970.4
СВ 1 25 км н/о +0.4 +0.3 99 -2 -2 по сезону 988.7 970.1
СВ 1 1100 м туман н/о 0.0 0.0 100 -2 -2 по сезону 988.3 969.6
СВ 1 600 м туман н/о -0.2 -0.2 100 -3 -3 прохладно 987.8 969.1
С 1 300 м туман н/о -0.1 -0.1 100 -2 -2 по сезону 987.3 968.7
штиль 0 400 м туман н/о -0.0 -0.0 100 -1 -1 по сезону 986.7 968.0
СЗ 1 300 м слаб. морось н/о 0.0 0.0 100 -2 -2 по сезону 986.0 967.4
штиль 0 800 м дождь н/о 0.0 0.0 100 -1 -1 по сезону 985.4 966.8
ЮВ 1 2300 м дождь со снегом н/о 0.0 0.0 100 -2 -2 по сезону 984.7 966.1
С 1 1500 м слаб. снег н/о 0.0 0.0 100 -2 -2 по сезону 984.3 965.7
СЗ 1 1600 м слаб. снег н/о 0.0 0.0 100 -2 -2 по сезону 984.0 965.5 -0.8 +2.0
СЗ 2 2600 м слаб. снег н/о +0.2 +0.2 100 -4 -4 прохладно 984.4 965.8
СЗ 2 2300 м слаб. снег н/о +0.2 +0.2 100 -4 -4 прохладно 984.8 966.2
СЗ 3 5000 м слаб. снег н/о +0.3 +0.3 100 -5 -5 холодно 985.2 966.6
З 2 50 км в посл. час снег н/о +0.1 -0.0 99 -4 -4 прохладно 985.2 966.6
З 4 50 км н/о +0.6 0.0 96 -5 -5 холодно 985.5 967.0
З 4 50 км н/о +0.5 -0.4 94 -5 -5 холодно 986.1 967.5
З 4 50 км н/о +0.8 -0.3 92 -5 -5 холодно 986.9 968.2
З 3 50 км н/о +0.7 -0.6 91 -4 -4 прохладно 987.8 969.2
СЗ 5 50 км н/о +0.3 -1.0 91 -6 -6 холодно 988.6 970.0
З 5 50 км н/о 0.0 -1.7 88 -6 -6 холодно 989.5 970.8
З 5 50 км н/о -0.5 -2.3 88 -7 -7 холодно 990.2 971.4
З 6 50 км н/о -2.1 -3.3 91 -9 -9 очень
холодно
991.0 972.2 -2.1 +1.0
З 4 50 км н/о -1.5 -3.1 89 -7 -7 холодно 991.7 972.9
З 6 50 км н/о -2.2 -3.6 90 -9 -9 очень
холодно
992.1 973.3
З 5 50 км н/о -1.9 -3.9 86 -8 -8 очень
холодно
992.4 973.6
З 4 50 км н/о -1.9 -4.0 86 -8 -8 очень
холодно
992.8 974.0
З 4 50 км н/о -3.4 -5.4 86 -10 -10 очень
холодно
993.0 974.1
З 4 50 км н/о -3.6 -5.6 86 -10 -10 очень
холодно
993.1 974.2
З 3 50 км н/о -2.4 -5.1 82 -7 -7 холодно 992.7 973.8
З 3 50 км н/о -3.8 -5.7 87 -9 -9 очень
холодно
992.2 973.4
штиль 0 50 км н/о -4.7 -5.9 91 -6 -6 холодно 991.5 972.6
штиль 0 50 км н/о -5.5 -6.5 93 -7 -7 холодно 990.9 972.0
Ю 2 50 км н/о -4.4 -5.2 94 -9 -9 очень
холодно
990.2 971.3
Ю 2 50 км н/о -3.4 -4.8 90 -8 -8 очень
холодно
989.1 970.3 -6.4 -1.5
Ю 2 50 км н/о -2.8 -4.2 90 -7 -7 холодно 987.8 969.0
Ю 3 50 км н/о -2.6 -4.0 90 -8 -8 очень
холодно
986.3 967.6
ЮВ 2 7000 м осадки н/о -2.1 -3.7 89 -6 -6 холодно 984.7 966.0
В 3 1300 м слаб. снег н/о -2.3 -2.8 96 -8 -8 очень
холодно
982.3 963.7
В 4 500 м снег н/о -2.1 -2.5 97 -8 -8 очень
холодно
979.6 961.0
В 4 800 м снег н/о -1.7 -2.1 97 -8 -8 очень
холодно
976.6 958.1
ЮВ 5 7000 м слаб. снег н/о -0.9 -1.3 97 -7 -7 холодно 974.1 955.7
В 3 5000 м в посл. час зёрна н/о -0.1 -0.4 98 -5 -5 холодно 972.0 953.6
ЮВ 2 2900 м слаб. дождь н/о +0.4 +0.3 99 -3 -3 прохладно 969.9 951.6
ЮЗ 3 2500 м ливневой дождь н/о +1.4 +0.8 96 -3 -3 прохладно 968.7 950.5
ЮЗ 5 50 км в посл. час дождь н/о +3.1 +1.9 92 -2 -2 по сезону 968.6 950.4
ЮЗ 7 50 км н/о +3.3 +1.3 87 -3 -3 прохладно 969.3 951.2 -3.7 +3.7
З 5 50 км н/о +2.9 +0.8 86 -2 -2 по сезону 970.0 951.8
ЮЗ 6 50 км н/о +3.2 +1.0 85 -3 -3 прохладно 970.1 951.9
ЮЗ 8 40 км н/о +3.5 +1.3 85 -3 -3 прохладно 970.3 952.1
ЮЗ 10 40 км н/о +3.7 +1.1 83 -3 -3 прохладно 970.6 952.5
ЮЗ 6 35 км н/о +3.6 +1.1 84 -2 -2 по сезону 971.2 953.0
ЮЗ 8 27 км н/о +3.7 +1.1 83 -3 -3 прохладно 971.4 953.2
ЮЗ 7 28 км н/о +3.6 +1.0 83 -2 -2 по сезону 972.0 953.8
ЮЗ 7 24 км н/о +3.8 +1.0 82 -2 -2 по сезону 972.6 954.4
ЮЗ 8 30 км н/о +3.8 +1.1 83 -2 -2 по сезону 973.0 954.9
ЮЗ 7 28 км н/о +3.9 +1.1 82 -2 -2 по сезону 973.2 955.0
ЮЗ 7 26 км н/о +4.1 +1.2 81 -2 -2 по сезону 973.8 955.6
ЮЗ 5 30 км н/о +4.1 +1.3 82 -1 -1 по сезону 974.7 956.5 +2.6 +4.5
ЮЗ 3 23 км н/о +3.8 +1.8 87 0 0 по сезону 976.1 957.9
З 3 35 км н/о +2.9 +1.2 89 -1 -1 по сезону 977.5 959.2
З 1 29 км н/о +3.8 +1.6 86 +2 +2 по сезону 978.7 960.4
З 1 24 км слаб. ливневой дождь н/о +3.5 +1.8 89 +2 +2 по сезону 979.5 961.2
З 3 4200 м дождь н/о +2.4 +1.7 95 -2 -2 по сезону 980.7 962.3
С 4 21 км в посл. час дождь н/о +1.6 0.0 89 -4 -4 прохладно 982.5 964.0
С 3 50 км в посл. час снег н/о +0.9 -1.3 85 -4 -4 прохладно 984.0 965.5
С 4 30 км осадки н/о 0.0 -2.8 81 -5 -5 холодно 985.7 967.1
С 5 27 км слаб. ливневой снег н/о -0.7 -4.8 74 -7 -7 холодно 987.7 969.0
С 5 2200 м слаб. снег н/о -1.8 -4.0 85 -8 -8 очень
холодно
989.6 970.9
С 5 35 км слаб. снег н/о -1.4 -4.7 78 -8 -8 очень
холодно
991.3 972.6
С 5 9000 м ливневой дождь н/о -1.6 -4.5 81 -8 -8 очень
холодно
992.9 974.1 -2.1 +4.3
С 5 50 км в посл. час снег н/о -1.2 -5.4 73 -7 -7 холодно 994.4 975.5
С 5 50 км н/о -1.4 -5.8 72 -8 -8 очень
холодно
996.3 977.4
С 5 50 км н/о -1.8 -6.2 72 -8 -8 очень
холодно
998.2 979.3
СЗ 4 50 км н/о -2.9 -7.1 73 -9 -9 очень
холодно
999.8 980.8
СЗ 4 50 км н/о -3.2 -7.7 71 -9 -9 очень
холодно
1001.6 982.6
СЗ 2 50 км н/о -4.2 -8.2 74 -8 -8 очень
холодно
1003.0 983.9
З 4 50 км н/о -4.5 -7.7 78 -11 -11 очень
холодно
1004.3 985.2
З 3 50 км н/о -4.2 -8.2 74 -9 -9 очень
холодно
1005.6 986.4
З 7 50 км н/о -3.8 -8.3 71 -12 -12 очень
холодно
1006.5 987.3
З 5 50 км н/о -4.6 -8.2 76 -12 -12 очень
холодно
1007.1 987.9
З 2 45 км н/о -4.7 -8.3 76 -9 -9 очень
холодно
1008.5 989.3
З 4 50 км н/о -5.6 -8.5 80 -12 -12 очень
холодно
1009.9 990.6 -5.7 -1.2
З 4 50 км н/о -4.7 -8.1 77 -11 -11 очень
холодно
1010.8 991.5
З 5 50 км н/о -5.2 -8.4 78 -12 -12 очень
холодно
1011.6 992.3
З 5 40 км н/о -4.8 -8.4 76 -12 -12 очень
холодно
1012.8 993.5
З 4 45 км н/о -4.8 -8.0 78 -11 -11 очень
холодно
1013.2 993.9
Ю 1 45 км н/о -4.2 -8.1 74 -6 -6 холодно 1013.7 994.4
штиль 0 50 км н/о -4.5 -7.7 78 -5 -5 холодно 1013.8 994.5
ЮЗ 2 45 км н/о -5.0 -7.7 81 -9 -9 очень
холодно
1013.9 994.6
Ю 3 45 км н/о -6.1 -7.9 87 -12 -12 очень
холодно
1013.9 994.6
Ю 1 50 км н/о -5.9 -8.0 85 -8 -8 очень
холодно
1013.8 994.4
штиль 0 50 км н/о -4.2 -7.0 81 -5 -5 холодно 1013.2 993.9
Местоположение метеостанции Борланж (Швеция): широта 60.43 долгота 15.52 высота над уровнем моря 150 м.
В архиве по умолчанию представлена погода в Борланже за последнюю неделю. Архивные данные за месяц целиком и за предыдущие месяцы, начиная с января 2011 года, Вы можете получить, выбрав интересующий диапазон дат из раскрывающегося списка и нажав кнопку "Найти!".
*Определитесь, кто Вы:
Внимание! Время в таблицах - всемирное. Для получения местного времени необходимо прибавить поправку, которая равна 1 ч.
Смотрите также архив погоды в соседних городах и на ближайших метеорологических станциях:
Партнеры нашего сайта:      
Пояснения к столбцам:
  • Ветер - указаны скорость ветра в м/с - средняя за 10 мин, порывы в срок и между сроками (в фигурных скобках) и направление, откуда дует ветер: С - северный,
  • СВ - северо-восточный, В - восточный, ЮВ - юго-восточный, Ю - южный, ЮЗ - юго-западный, З - западный, СЗ - северо-западный.
  • Видимость - горизонтальная дальность видимости в метрах или километрах. При видимости от 1 до 10 км при отсутствии осадков обычно наблюдается дымка, при ухудшении видимости до 1 км и менее - туман. В сухую погоду видимость может ухудшаться дымом, пылью или мглою.
  • Явления - указаны атмосферные явления, наблюдавшиеся в срок или в последний час перед сроком; фигурными скобками обозначены явления, наблюдавшиеся между сроками (за 1-3 часа до срока); квадратными скобками обозначены град или гололедные отложения с указанием их диаметра в мм.
  • Облачность - указаны через наклонную черту общая и нижняя облачность в баллах и высота нижней границы облаков в метрах; квадратными скобками обозначены формы облаков: Ci - перистые, Cs - перисто-слоистые, Cc - перисто-кучевые, Ac - высококучевые, As - высокослоистые, Sc - слоисто-кучевые, Ns - слоисто-дождевые, Cu - кучевые, Cb - кучево-дождевые. Подробнее классификацию облаков см. в Атласе облаков (PDF).
  • T - Температура воздуха - температура, измеренная на высоте 2 м над землей.
  • Td - Температура точки росы - температура, при понижении до которой содержащийся в воздухе водяной пар достигнет насыщения.
  • f - Относительная влажность воздуха - влажноcть воздуха, измеренная на высоте 2 м над землей.
  • Te - Эффективная температура - температура, которую ощущает одетый по сезону человек в тени. Характеристика душности погоды. При расчете учитывается влияние влажности воздуха и скорости ветра на теплоощущения человека.
  • Tes - Эффективная температура на солнце - температура, которую ощущает человек, с поправкой на солнечный нагрев. Характеристика знойности погоды. Зависит от высоты солнца над горизонтом, облачности и скорости ветра. Ночью, в пасмурную погоду, а также при ветре 12 м/с и более поправка равна нулю.
  • P - Атмосферное давление - приведенное к уровню моря атмосферное давление.
  • Po - Атмосферное давление - измеренное на уровне метеостанции атмосферное давление.
  • Tmin - Минимальная температура - минимум температуры воздуха на высоте 2 м над землей.
  • Tmax - Максимальная температура - максимум температуры воздуха на высоте 2 м над землей.
  • R - Количество осадков - Количество выпавших осадков за период времени, мм. При наведении курсора мыши на число - период времени, за который выпало указанное количество осадков.
  • R24 - Количество осадков - Количество выпавших осадков за 24 часа, мм.
  • S - Снежный покров - Высота снежного покрова, см. При наведении курсора мыши на число - состояние снежного покрова и степень покрытия местности в баллах.